Simultaneous Nadir Overpasses (SNOs) Predictions

Prediction of SNOs between AQUA and NOAA-19 Satellite Orbit:

Table of predicted SNOs for the next 14.0 days since TLE Epoch: 1/12/2018
Index Date (AQUA) Time (AQUA) Lat,Lon (AQUA) SZA (AQUA ) Date (NOAA-19) Time (NOAA-19) Lat,Lon (NOAA-19) SZA (NOAA-19 ) Distance(km) Time Diff (sec)
1 01/13/2018 17:55:56 -80.89, 51.19 75.53 01/13/2018 17:54:46 -80.88, 51.12 75.50 2.09 70
2 01/13/2018 18:45:23 80.89,-141.09 104.46 01/13/2018 18:45:41 80.89,-141.11 104.45 0.50 18
3 01/16/2018 00:19:07 -80.89, -44.55 75.93 01/16/2018 00:19:27 -80.88, -44.72 75.92 3.06 20
4 01/18/2018 05:52:52 80.88, 52.07 103.65 01/18/2018 05:53:03 80.88, 51.91 103.66 2.70 11
5 01/20/2018 11:26:36 -80.89, 148.59 76.79 01/20/2018 11:26:49 -80.88, 148.49 76.79 1.96 13
6 01/22/2018 17:00:21 80.89,-114.89 102.74 01/22/2018 17:00:24 80.88,-114.78 102.72 2.30 3




NCC Satellite Simultaneous Nadir Overpasses (SNOs) Prediction Service
